Location: Paddlesworth
(51.1000°N, 1.1333°E)
Time: 08:54:18
(UTC+00:00)

Cosmos 1733 Rocket - Pass Details

Date: 11 May 2021
Orbit: 603 x 628 km, 82.5° (Epoch: 15 June)

Event Time Altitude Azimuth Distance (km) Brightness Sun altitude
Rises 22:57:17 0° 345° (NNW) 2,875 8.1 -19.7°
Reaches altitude 10° 22:59:33 10° 340° (NNW) 1,964 6.8 -19.8°
Maximum altitude 23:03:44 49° 266° (W) 784 3.6 -20.0°
Enters shadow 23:04:56 38° 219° (SW) 937 3.6 -20.0°
